sat.trackr.live / text

‹ back to catalog

LAOSAT 1

NORAD 41034 · 2015-067A

PAYLOAD ACTIVE UNKNOWN

§ Identity

Operator
Country
LAOS
Launch date
2015-11-20
Launch site
XICLF
Launch vehicle
Mass (kg)
RCS (m²)
56.74

Purposes: comms

External: N2YO · Heavens-Above · Gunter

§ Orbital elements

Epoch: 2026-09-19T22:42:48.280896Z

Period
1,436.11 min
Inclination
0.0409°
Eccentricity
0.0002373
Mean motion
1.00270927 rev/d
Perigee alt
35,776.8 km
Apogee alt
35,796.8 km
Semi-major
42,165.0 km
B*
0.0000e+0
RAAN
346.8308°
Arg perigee
130.5965°
Mean anomaly
350.6503°
Rev number
3,981

§ Raw data

LAOSAT 11 41034U 15067A   26262.94639214 -.00000347  00000+0  00000+0 0  99902 41034   0.0409 346.8308 0002373 130.5965 350.6503  1.00270927 39814

JSON: /api/v1/satellites/41034 · /tle

For live sub-satellite position, see the globe view (requires WebGL).

§ Visibility from observer

Set your observer location to see the next 7 days of passes ≥ 10°. The values pass through the URL so the page stays shareable.

No JS? Fill the form by hand. The geolocation button needs JavaScript.